DateTimeUTC,F1_A11,F1_S11,BsB_S11,BsG_S11,BsR_S11,BbsB_S11,BbsG_S11,BbsR_S11,BaB_A11,BaG_A11,BaR_A11,Tu_S11,T_S11,Uu_S11,U_S11,P_S11,T1_A11
2021-09-22T17:00:00Z,00040200,21000000,,,,,,,-000.30,0000.14,-000.37,19.6,26.1,00.9,00.6,0657.6,31.1
2021-09-22T17:01:00Z,00040200,21000000,,,,,,,-000.12,-000.59,-000.11,19.5,26.1,00.8,00.5,0657.6,31.1
2021-09-22T17:02:00Z,00040200,21000000,,,,,,,-000.31,-000.24,-000.06,19.5,26.1,00.6,00.4,0657.6,31.1
2021-09-22T17:03:00Z,00040200,61000000,,,,,,,0000.14,0000.29,-000.30,19.5,26.1,00.6,00.4,0657.6,31.1
2021-09-22T17:04:00Z,00040200,41000000,0000.27,0000.50,0000.40,0000.34,-000.17,-000.10,0000.40,0000.24,0000.37,19.5,25.8,00.9,00.6,0658.5,31.1
2021-09-22T17:05:00Z,00040200,01000000,0000.69,0000.40,0000.11,0000.00,-000.01,0000.03,0000.20,0000.28,0000.12,19.5,25.8,00.9,00.6,0658.5,31.0
2021-09-22T17:06:00Z,00040200,01000000,0000.52,0000.41,-000.01,0000.86,0000.19,0000.20,0000.39,-000.29,0000.23,19.5,25.8,01.0,00.7,0658.5,31.1
2021-09-22T17:07:00Z,00040200,01000000,0000.32,0000.41,0000.28,-000.29,0000.21,0000.46,-000.25,0000.59,0000.00,19.6,25.8,00.9,00.6,0658.6,31.1
2021-09-22T17:08:00Z,00040200,01000000,0000.19,0000.65,-000.10,-000.05,-000.12,-000.15,0000.57,0000.21,0000.43,19.7,25.8,01.0,00.7,0658.5,31.1
2021-09-22T17:09:00Z,00040200,01000000,0000.91,0000.50,0000.05,0000.49,-000.12,0000.53,-000.18,0000.14,-000.04,19.7,25.9,01.0,00.7,0658.6,31.1
2021-09-22T17:10:00Z,00040200,01000000,-000.05,0000.48,0000.32,0000.01,0000.17,0000.25,-000.08,-000.22,-000.01,19.7,25.9,01.0,00.7,0658.6,31.1
2021-09-22T17:11:00Z,00040200,01000000,0000.59,0000.52,0000.11,0000.84,0000.16,-000.12,-000.42,-000.03,-000.07,19.6,25.9,00.9,00.6,0658.6,31.1
2021-09-22T17:12:00Z,00040200,01000000,0000.76,0000.51,0000.14,0000.49,-000.07,0000.31,0000.10,-000.16,-000.34,19.6,25.8,00.9,00.6,0658.6,31.1
2021-09-22T17:13:00Z,00040200,01000000,0001.14,0000.09,0000.00,0000.34,0000.07,-000.18,-000.37,-000.18,0000.08,19.5,25.8,00.9,00.6,0658.6,31.1
2021-09-22T17:14:00Z,00040200,01000000,0001.13,0000.51,0000.06,0000.79,-000.11,-000.08,0000.61,0000.18,0000.11,19.4,25.8,00.9,00.6,0658.6,31.0
2021-09-22T17:15:00Z,00040200,01000000,-000.31,0000.63,0000.30,0000.61,0000.37,0000.15,0000.30,-000.06,-000.29,19.4,25.7,01.0,00.7,0658.6,31.0
2021-09-22T17:16:00Z,00040200,01000000,0000.71,0000.43,0000.51,-000.29,-000.05,0000.11,-000.20,0000.03,0000.23,19.3,25.7,01.0,00.7,0658.6,31.0
2021-09-22T17:17:00Z,00040200,01000000,0000.27,0000.37,0000.35,0000.72,-000.07,0000.08,-000.26,0000.40,-000.21,19.2,25.7,01.0,00.7,0658.5,31.0
2021-09-22T17:18:00Z,00040200,01000000,0000.75,0000.52,-000.09,0000.23,0000.10,0000.09,0000.44,-000.18,0000.37,19.2,25.6,01.0,00.7,0658.5,31.0
2021-09-22T17:19:00Z,00040200,01000000,0000.30,0000.44,0000.11,0000.22,-000.17,-000.02,0000.17,0000.13,-000.06,19.2,25.6,01.0,00.7,0658.6,31.0
2021-09-22T17:20:00Z,00040200,01000000,0000.63,0000.15,0000.12,0000.16,0000.19,0000.11,0000.31,0000.42,0000.68,19.2,25.6,01.0,00.7,0658.6,31.0
2021-09-22T17:21:00Z,00040200,01000000,0000.39,0000.48,0000.24,0000.37,0000.29,-000.12,0000.09,0000.14,0000.17,19.2,25.6,01.1,00.8,0658.6,31.0
2021-09-22T17:22:00Z,00040200,01000000,0000.21,0000.49,0000.07,-000.14,0000.02,-000.00,0000.49,0000.52,-000.31,19.3,25.6,01.1,00.8,0658.6,31.0
2021-09-22T17:23:00Z,00040200,01000000,0000.67,0000.38,0000.46,-000.32,0000.07,-000.15,-000.20,-000.18,0000.26,19.4,25.7,01.0,00.7,0658.7,31.0
2021-09-22T17:24:00Z,00040200,01000000,-000.02,0000.32,0000.22,-000.03,-000.29,-000.15,0000.35,0000.02,0000.19,19.5,25.7,01.1,00.7,0658.7,31.1
2021-09-22T17:25:00Z,00040200,01000000,0000.03,0000.34,-000.10,0000.71,0000.12,-000.08,-000.11,-000.10,0000.38,19.5,25.7,01.0,00.7,0658.7,31.1
2021-09-22T17:26:00Z,00040200,01000000,0000.40,0000.58,0000.05,-000.04,0000.24,-000.43,-000.12,0000.28,-000.44,19.6,25.8,01.0,00.7,0658.7,31.1
2021-09-22T17:27:00Z,00040200,01000000,-000.09,0000.42,0000.30,0000.26,0000.07,-000.07,0000.46,0000.18,0000.16,19.5,25.8,01.0,00.7,0658.7,31.1
2021-09-22T17:28:00Z,00040200,01000000,0000.20,0000.28,0000.43,0000.33,-000.27,0000.23,-000.40,-000.18,-000.19,19.4,25.7,01.0,00.7,0658.7,31.1
2021-09-22T17:29:00Z,00040200,01000000,0000.01,0000.16,0000.19,0000.76,-000.25,0000.02,-000.15,0000.15,0000.02,19.4,25.7,01.0,00.7,0658.7,31.1
2021-09-22T17:30:00Z,00040200,01000000,0000.50,0000.45,0000.09,0000.36,0000.05,0000.02,-000.07,-000.48,0000.01,19.3,25.7,01.0,00.7,0658.7,31.0
2021-09-22T17:31:00Z,00040200,01000000,0000.92,0000.16,-000.36,-000.22,0000.18,-000.05,0000.25,0000.08,0000.04,19.3,25.6,01.0,00.7,0658.7,31.0
2021-09-22T17:32:00Z,00040200,01000000,0000.72,0000.51,0000.28,0000.58,0000.14,-000.30,0000.17,0000.21,0000.26,19.2,25.6,01.0,00.7,0658.7,31.0
2021-09-22T17:33:00Z,00040200,01000000,0000.88,0000.65,-000.06,0000.91,0000.01,-000.42,0000.07,0000.11,-000.19,19.2,25.5,01.1,00.7,0658.7,31.0
2021-09-22T17:34:00Z,00040200,01000000,0000.55,0000.25,0000.21,0000.04,-000.05,0000.35,0000.23,-000.02,0000.16,19.2,25.5,01.0,00.7,0658.7,31.0
2021-09-22T17:35:00Z,00040200,01000000,0000.48,0000.26,0000.13,0000.08,0000.07,-000.06,-000.10,0000.14,0000.33,19.2,25.5,01.0,00.7,0658.7,31.0
2021-09-22T17:36:00Z,00040200,01010000,-000.22,0000.30,-000.20,0000.07,-000.22,-000.03,0000.10,0000.43,-000.03,19.2,25.6,01.0,00.7,0658.7,31.0
2021-09-22T17:37:00Z,00040200,01000000,0000.49,0000.37,0000.23,0000.73,0000.20,0000.47,0000.44,0000.16,0000.54,19.3,25.6,01.0,00.7,0658.8,31.0
2021-09-22T17:38:00Z,00040200,01000000,0000.26,0000.31,0000.53,-000.29,0000.10,-000.15,-000.23,0000.28,-000.11,19.4,25.6,01.0,00.7,0658.8,31.1
2021-09-22T17:39:00Z,00040200,01000000,0000.80,0000.38,-000.12,0000.51,-000.05,-000.10,0000.37,-000.13,0000.14,19.5,25.7,00.9,00.6,0658.7,31.1
2021-09-22T17:40:00Z,00040200,01000000,-000.10,0000.13,0000.31,0000.68,-000.26,0000.13,-000.15,-000.17,-000.24,19.5,25.7,01.0,00.7,0658.8,31.1
2021-09-22T17:41:00Z,00040200,01000000,0000.65,0000.49,0000.29,0000.70,-000.13,-000.26,0000.02,-000.24,0000.18,19.4,25.7,01.0,00.7,0658.8,31.1
2021-09-22T17:42:00Z,00040200,01000000,0000.11,0000.26,0000.05,0000.06,-000.05,-000.04,-000.09,0000.27,-000.37,19.4,25.6,00.9,00.6,0658.8,31.0
2021-09-22T17:43:00Z,00040200,01000000,-000.29,0000.55,0000.24,0000.38,0000.07,0000.07,-000.09,-000.20,-000.12,19.3,25.6,01.0,00.7,0658.8,31.0
2021-09-22T17:44:00Z,00040200,01000000,0001.36,0000.38,-000.04,0000.41,-000.02,0000.14,0000.06,0000.09,0000.07,19.2,25.6,01.0,00.7,0658.8,31.0
2021-09-22T17:45:00Z,00040200,01000000,0000.10,0000.39,0000.05,-000.11,0000.22,0000.10,-000.52,-000.59,-000.03,19.2,25.6,01.0,00.7,0658.8,31.0
2021-09-22T17:46:00Z,00040200,01000000,-000.40,0000.27,0000.29,-000.07,0000.04,-000.09,0000.55,0000.11,-000.28,19.1,25.5,01.0,00.7,0658.8,31.0
2021-09-22T17:47:00Z,00040200,01000000,0000.30,0000.04,0000.48,0000.38,0000.06,0000.05,0000.14,0000.36,0000.53,19.1,25.5,00.9,00.6,0658.7,31.0
2021-09-22T17:48:00Z,00040200,01000000,0001.05,0000.79,0000.27,0000.39,-000.19,-000.01,0000.43,0000.41,0000.39,19.0,25.4,01.0,00.7,0658.8,31.0
2021-09-22T17:49:00Z,00040200,01000000,0000.52,0000.38,0000.00,-000.41,-000.17,0000.35,0000.32,0000.17,0000.03,19.0,25.4,01.0,00.7,0658.8,31.0
2021-09-22T17:50:00Z,00040200,01000000,-000.01,0000.55,0000.16,0000.36,-000.14,-000.35,0000.19,0000.09,0000.19,19.0,25.4,01.1,00.7,0658.8,31.0
2021-09-22T17:51:00Z,00040200,01000000,-000.16,0000.29,0000.19,0000.43,0000.18,-000.16,0000.39,0000.31,-000.07,19.0,25.4,01.3,00.9,0658.8,31.0
2021-09-22T17:52:00Z,00040200,01000000,0000.46,0000.33,0000.54,0000.65,-000.01,-000.12,-000.39,0000.22,0000.24,19.1,25.5,01.2,00.8,0658.8,31.0
2021-09-22T17:53:00Z,00040200,01000000,0000.73,0000.56,0000.42,0000.09,0000.36,0000.14,0000.16,0000.37,0000.15,19.2,25.5,01.1,00.8,0658.9,31.0
2021-09-22T17:54:00Z,00040200,01000000,0000.71,0000.24,0000.31,0000.03,0000.02,-000.03,0000.23,-000.05,0000.27,19.3,25.6,01.1,00.8,0658.9,31.0
2021-09-22T17:55:00Z,00040200,01000000,0000.47,0000.15,0000.13,-000.03,-000.13,0000.30,-000.12,-000.02,-000.01,19.3,25.6,01.1,00.7,0658.9,31.1
2021-09-22T17:56:00Z,00040200,01000000,0000.61,0000.17,0000.34,0000.43,-000.03,0000.01,-000.05,0000.04,-000.22,19.3,25.6,01.1,00.8,0658.9,31.1
2021-09-22T17:57:00Z,00040200,41000000,,,,,,,-000.01,-000.10,0000.16,19.4,25.6,01.2,00.8,0658.9,31.0
2021-09-22T17:58:00Z,00040200,61000000,,,,,,,-000.18,-000.29,-000.30,19.1,25.7,00.9,00.6,0658.0,31.1
2021-09-22T17:59:00Z,00040200,21000000,,,,,,,0000.22,0000.35,0000.17,19.0,25.8,00.9,00.6,0657.9,31.1
